Regional Weather Roundup
Issued by NWS

Home | Current Version | Previous Version | Text Only | Print | Product List | Glossary On
Versions: 1 2 3 4 5 6 7 8 9 10 11 12 13 14 15 16 17 18 19 20 21 22 23 24 25 26 27 28 29 30 31 32 33 34 35 36 37 38 39 40 41 42 43 44 45 46 47 48 49 50
000
ASUS43 KDMX 271407
RWRIA

WEATHER ROUNDUP FOR IOWA
NATIONAL WEATHER SERVICE DES MOINES IA
900 AM CDT MON APR 27 2015

NOTE: "FAIR" INDICATES FEW OR NO CLOUDS BELOW 12,000 FEET WITH NO
SIGNIFICANT WEATHER AND/OR OBSTRUCTIONS TO VISIBILITY.

* - THESE STATIONS ARE NOT NWS STATIONS...THUS NOT UNDER NWS
QUALITY CONTROL.  THEY ALSO DO NOT REPORT WEATHER SUCH
AS PRECIPITATION OR FOG.

IAZ001>003-012>014-020>022-031>034-043>046-271500-
   NORTHWEST IOWA

CITY           SKY/WX    TMP DP  RH WIND       PRES   REMARKS
CARROLL *      SUNNY     50  36  57 N7        30.20R
CHEROKEE *     SUNNY     46  36  66 NE3       30.23S
DENISON *      SUNNY     48  39  71 N5        30.20R
LE MARS *      SUNNY     48  34  57 NE5       30.24S
ORANGE CITY *  SUNNY     50  30  46 E3        30.23
SHELDON *      SUNNY     54  32  43 N3        30.22S
SIOUX CITY     SUNNY     50  35  56 VRB3      30.22R
SPENCER        SUNNY     53  32  44 VRB3      30.23R
STORM LAKE *   SUNNY     52  32  46 N9        30.22S
$$

IAZ055>058-069>071-079>083-090>094-271500-
   SOUTHWEST IOWA

CITY           SKY/WX    TMP DP  RH WIND       PRES   REMARKS
ATLANTIC *     SUNNY     48  39  71 NE5       30.20R
AUDUBON *      SUNNY     52  37  58 N7        30.20S
CLARINDA *     SUNNY     48  39  71 N5        30.21R
COUNCIL BLFS * SUNNY     48  37  66 N7        30.21R
CRESTON *      SUNNY     52  34  50 N9        30.18R
HARLAN  *      SUNNY     46  39  76 N8        30.23S
LAMONI         SUNNY     53  36  52 N8        30.16R
RED OAK *      SUNNY     48  39  71 CALM      30.20R
SHENANDOAH *   SUNNY     48  39  71 CALM      30.21R
$$

IAZ047>049-059>061-072>074-084-271500-
   CENTRAL IOWA

CITY           SKY/WX    TMP DP  RH WIND       PRES   REMARKS
AMES           SUNNY     50  33  52 N8        30.19R
ANKENY *       SUNNY     50  36  57 N8        30.18S
CHARITON *     SUNNY     50  37  62 N9        30.16S
DES MOINES     MOSUNNY   54  33  45 NE7       30.18R
GRINNELL*      SUNNY     48  34  57 N8        30.18R
KNOXVILLE *    SUNNY     50  34  53 N7        30.15S
MARSHALLTOWN   SUNNY     48  34  58 NE10      30.18R
PELLA *        SUNNY     50  41  71 N7        30.18R
PERRY *          N/A     50  36  57 N7        30.19R
$$

IAZ004>006-015-016-023>025-035-036-271500-
   NORTH CENTRAL IOWA

CITY           SKY/WX    TMP DP  RH WIND       PRES   REMARKS
ALGONA *       SUNNY     48  30  49 NE12      30.22S
CLARION *      SUNNY     50  32  50 NE10      30.21R
ESTHERVILLE    SUNNY     50  30  46 N7        30.22R
FORT DODGE *   SUNNY     48  34  57 N3        30.22R
MASON CITY     SUNNY     49  32  52 NE10      30.22S
FOREST CITY *  SUNNY     46  32  57 NE8       30.21S
IOWA FALLS *     N/A     48  32  53 NE9       30.21R
$$

IAZ007>011-017>019-026>030-037>042-050>054-066-271500-
   NORTHEAST IOWA

CITY           SKY/WX    TMP DP  RH WIND       PRES   REMARKS
CEDAR RAPIDS   SUNNY     47  36  65 E7        30.16R
CHARLES CITY * SUNNY     48  32  53 CALM      30.21S
CLINTON *      SUNNY     48  36  61 NE9       30.20R
DECORAH *      SUNNY     46  30  53 CALM      30.20R
DUBUQUE        SUNNY     47  31  53 CALM      30.19R
MONTICELLO *   SUNNY     48  36  61 VRB5      30.19R
OELWEIN *      SUNNY     48  32  53 CALM      30.21R
WATERLOO       SUNNY     47  34  60 E5        30.20R
$$

IAZ064-065-067-068-078-271500-
   EAST CENTRAL IOWA

CITY           SKY/WX    TMP DP  RH WIND       PRES   REMARKS
DAVENPORT      SUNNY     49  34  56 NE10      30.17R
IOWA CITY      SUNNY     48  35  60 NE7       30.18R
MT. PLEASANT * SUNNY     46  37  71 NE9       30.15R
MUSCATINE *    SUNNY     50  36  57 NE7       30.17R
QUAD CITIES    SUNNY     49  34  56 E7        30.16R
$$

IAZ062-063-075>077-085>089-095>099-271500-
   SOUTHEAST IOWA

CITY           SKY/WX    TMP DP  RH WIND       PRES   REMARKS
BURLINGTON     SUNNY     50  39  66 NE9       30.13R
FAIRFIELD *    SUNNY     48  36  61 N12       30.15R
FORT MADISON * SUNNY     48  37  66 NE7       30.13S
KEOKUK *       SUNNY     52  36  54 N7        30.12R
OSKALOOSA *      N/A     48  36  61 N10       30.17R
CENTERVILLE *  SUNNY     54  39  58 NW7       30.16S
OTTUMWA        SUNNY     49  37  63 N7        30.16R
WASHINGTON *   SUNNY     48  43  81 NE9       30.15R
$$

ABBREVIATIONS USED IN REMARKS
   TC - TEMPERATURES IN CELSIUS
  WCI - WIND CHILL INDEX
   HX - HEAT INDEX
  VSB - VISIBILITY
$$



USA.gov is the U.S. government's official web portal to all federal, state and local government web resources and services.